GLOBALSTAR M025

Satellite information

Favourite Embed

Satellite Type and Status

PAYLOADIN ORBIT

Key statistics

Satellite GLOBALSTAR M025 at a glance.

Uptime

9464

Days in orbit

Revolutions

≈ 11.2

Per day

Orbit

MEO

Medium Earth Orbit

Inclination

52.0

Latest

Satellite identification and parameters

Extended collection of information and parameters for GLOBALSTAR M025.

Object identification

Identified? True

Debris? False

Object name: GLOBALSTAR M025

International designator: 1999-031A

Object number (NORAD): 25770

Object ID (CCSDS): 25770

Country: GLOBALSTAR (GLOB)

Current information (Y/N): Y

RCS size: LARGE

Orbital parameters

Period: 128.278 minutes

Inclination: 51.9814 deg

SMA: 8425.506 km

Apoapsis: 2049.065 km

Periapsis: 2045.678 km

RAAN: 252.5959 deg

Eccentricy: 0.000201

Argument of periapsis: 100.2351 deg

Mean anomaly: 52.8048 deg

Mean motion: 11.2255794 rev/day

Mean motion (dot): -0.00000073 rev/day2

B* drag term: -0.0001822 1/REarth

Two-line elements (TLE)

Creation date: May 8, 2025, 3:01 a.m.

Reference frame: TEME

Reference center: EARTH

Epoch: May 7, 2025, 9:38 p.m. UTC

TLE line 0: 0 GLOBALSTAR M025

TLE line 1: 1 25770U 99031A 25127.90166468 -.00000073 00000-0 -18220-3 0 9998

TLE line 2: 2 25770 51.9814 252.5959 0002010 100.2351 52.8048 11.22557940477183

Live tracking on map

Real-time ground track for satellite GLOBALSTAR M025.

In-orbit conjunctions

There are no conjunctions computed for GLOBALSTAR M025, at the moment. Check back to stay up to date, as we update our databases every day.

Go to all conjunctions

Associated space launch

The Globalstar global mobile communications network offers global, digital real time voice, data and fax via a constellation of 48 minisatellites. The constellation operates in a 1410 km orbit inclined at 52 degrees, and will also have 8 spares. The satellites were built by Space Systems Loral and Alenia Aerospazio in Rome, Italy.

GLOBALSTAR M025 was lifted into orbit during the mission ‘Delta 7420-10C | Globalstar 25,47,49,52’, on board a Delta 7420-10C space rocket.

The launch took place on June 10, 1999, 1:48 p.m. from Space Launch Complex 17B.

For more information about the launch, click the button.

Launch to space Delta 7420-10C | Globalstar 25,47,49,52
Delta 7420-10C | Globalstar 25,47,49,52

Agency: N/A

Status: Launch Successful

Launch date: June 10, 1999, 1:48 p.m. UTC

Rocket: Delta 7420-10C

Launch pad: Space Launch Complex 17B

Location: Cape Canaveral SFS, FL, USA

...

Latest news about this satellite

There are no fresh news available about this satellite. Check back as we update our databases every day.


Newsletter sign-up

Weekly statistics, charts and insights to help you stay on top of the space industry.